Hourly Data Report for July 21, 2021

CARIBOU POINT (AUT)
NOVA SCOTIA
Current Station Operator: ECCC - MSC

45°46'00.000" N
62°41'00.000" W
2.40 m
8200774
71415
WBK

Download Data

Hourly Data (July 2021)
Hourly Data Report for July 21, 2021
TIME
LST
Temp Definition
°C
Dew Point Definition
°C
Rel Hum Definition
%
Precip. Amount Definition
mm

Wind Dir Definition
10's deg

Wind Spd Definition
km/h
Visibility Definition
km
Stn Press Definition
kPa
Hmdx Definition


Wind Chill Definition


Weather Definition


00:00 19.3 18.2 93 0.0 5 7   100.96     LegendNANA
01:00 19.2 18.6 96 0.0 6 15   100.96     LegendNANA
02:00 18.3 17.9 98 0.0 7 14   100.99     LegendNANA
03:00 18.0 17.6 98 0.0 6 12   101.01     LegendNANA
04:00 18.1 17.7 97 0.0 4 5   101.02     LegendNANA
05:00 17.8 17.3 97 0.0 6 9   101.07     LegendNANA
06:00 18.0 17.7 98 0.0 3 7   101.13     LegendNANA
07:00 17.8 17.4 98 0.0 7 7   101.19     LegendNANA
08:00 18.1 17.7 98 0.0 6 7   101.19     LegendNANA
09:00 18.2 17.8 97 0.0 10 9   101.17     LegendNANA
10:00 18.6 17.9 96 0.0 8 12   101.18     LegendNANA
11:00 19.1 18.0 93 0.0 8 11   101.22     LegendNANA
12:00 19.3 17.7 90 0.0 6 12   101.22     LegendNANA
13:00 19.7 17.7 88 0.0 6 12   101.20     LegendNANA
14:00 20.2 18.4 90 0.0 9 19   101.13 27   LegendNANA
15:00 19.6 18.0 91 0.0 9 16   101.13     LegendNANA
16:00 19.1 17.5 91 0.0 8 16   101.07     LegendNANA
17:00 18.7 17.4 92 0.0 8 25   101.04     LegendNANA
18:00 18.4 17.2 93 0.0 8 22   101.03     LegendNANA
19:00 18.1 17.2 95 0.0 8 24   101.02     LegendNANA
20:00 18.0 17.3 96 0.0 10 5   100.98     LegendNANA
21:00 18.0 17.4 96 0.0 2 16   101.06     LegendNANA
22:00 17.7 17.1 96 0.0 5 11   101.06     LegendNANA
23:00 17.4 16.8 97 0.0 12 6   101.02     LegendNANA

Notes on Data Quality.

Legend

  • E = Estimated
  • M = Missing
  • NA = Not Available*
  • [empty] = Indicates an unobserved value
Date modified: